User: anonymous
Location: NC_16_and_73
(35.4490°N, 81.0150°W)
Time: 21:48:55
(UTC-04:00)
Language:

Iridium 63 - Orbit

View from above orbital plane
View from above orbital plane
View from above satellite
View from above satellite

Ground track
Ground track

The orbit data is extracted from the following two-line orbital elements,

1 25286U 98021B   14108.17728639  .00000020  00000-0  15626-6 0  7794
2 25286 086.4010 347.3640 0001919 101.6611 009.9844 14.34208714839320
Epoch (UTC): 18 April 2014 04:15:17
Eccentricity: 0.0001919
inclination: 86.4010°
perigee height: 776 km
apogee height: 779 km
right ascension of ascending node: 347.3640°
argument of perigee: 101.6611°
revolutions per day: 14.34208714
mean anomaly at epoch: 9.9844°
orbit number at epoch: 83932

The dashed part of the orbit path shows where the satellite is in the earth's shadow,  

DLR